Regional Weather Roundup
Issued by NWS

Home | Current Version | Previous Version | Graphics & Text | Print | Product List | Glossary On
Versions: 1 2 3 4 5 6 7 8 9 10 11 12 13 14 15 16 17 18 19 20 21 22 23 24 25 26 27 28 29 30 31 32 33 34 35 36 37 38 39 40 41 42 43 44 45 46 47 48 49 50
000
ASUS45 KCYS 280810
RWRWY

WYOMING REGIONAL WEATHER ROUNDUP
NATIONAL WEATHER SERVICE CHEYENNE WY
100 AM MST WED JAN 28 2015

NOTE:  "FAIR" INDICATES FEW OR NO CLOUDS BELOW 12,000 FEET
WITH NO SIGNIFICANT WEATHER AND/OR OBSTRUCTIONS TO VISIBILITY.

WYZ001-280900-
YELLOWSTONE NATIONAL PARK

CITY           SKY/WX    TMP DP  RH WIND       PRES   REMARKS
LK YELLOWSTONE   N/A     30  29  96 CALM      30.13F
W YELLOWSTONE  NOT AVBL

$$
WYZ002>013-054>058-071-098>099-280900-
NORTHERN WYOMING

CITY           SKY/WX    TMP DP  RH WIND       PRES   REMARKS
JACKSON        CLOUDY    30  30 100 CALM      30.12F
CODY           CLOUDY    50  28  43 W10G23    29.96S
GREYBULL       CLOUDY    29  27  92 N7        29.96S WCI  22
WORLAND        FAIR      25  22  88 S9        29.96R WCI  15
SHERIDAN       FAIR      38  28  67 S5        29.87S WCI  34
BUFFALO        FAIR      51  23  33 CALM      29.90F
GILLETTE       FAIR      43  30  60 SW12      29.87R
HULETT           N/A    N/A N/A N/A MISG        N/A
NEWCASTLE      FAIR      41  28  60 S6        29.90S

$$
WYZ014>020-022>026-101>103-280900-
CENTRAL WYOMING

CITY           SKY/WX    TMP DP  RH WIND       PRES   REMARKS
BIG PINEY      CLOUDY    24  21  88 N3        30.15F
PINEDALE       CLOUDY    21  19  93 CALM      30.15F
DUBOIS         FAIR      36  28  75 NW16G23   30.05F WCI  26
LANDER         FAIR      42  26  53 SW13      30.02F
RIVERTON       FAIR      37  27  67 S8        30.02F WCI  31
CASPER         FAIR      42  29  59 SW18G28   30.02S
DOUGLAS        FAIR      50  28  42 NW20G30   29.95F

$$
WYZ021-027>030-104>119-280900-
SOUTHERN WYOMING

CITY           SKY/WX    TMP DP  RH WIND       PRES   REMARKS
EVANSTON       FAIR      33  29  85 S7        30.18F WCI  27
KEMMERER       SNOW      32  32 100 SW6       30.18S VSB 1/4 WCI  26
FORT BRIDGER   PTSUNNY   36  32  86 W9        30.22R WCI  29
ROCK SPRINGS   CLOUDY    36  28  73 CALM      30.15F
DIXON          CLOUDY    38  34  84 SW10G20   30.22F WCI  31
RAWLINS        CLOUDY    39  31  72 W15       30.14F WCI  31
SARATOGA       CLOUDY    37  32  81 SW17      30.16F WCI  28
LARAMIE        LGT RAIN  39  30  70 SW18      30.10F WCI  30
CHEYENNE       FAIR      48  26  42 W16G32    30.01F
TORRINGTON     FAIR      46  29  51 W10       29.95F
PINE BLUFFS    FAIR      45  28  53 NW18      29.98F

$$


USA.gov is the U.S. government's official web portal to all federal, state and local government web resources and services.